Time,TemperatureF,DewpointF,PressureIn,WindDirection,WindDirectionDegrees,WindSpeedMPH,WindSpeedGustMPH,Humidity,HourlyPrecipIn,Conditions,Clouds,dailyrainin,SoftwareType,DateUTC
2013-09-29 00:05:00,56.6,52.6,30.03,West,274,1.6,3.0,82,0.00,NA,NA,0.21,meteo_script,2013-09-29 05:05:00,
2013-09-29 00:35:00,56.0,52.2,30.03,West,273,1.6,2.0,83,0.00,NA,NA,0.00,meteo_script,2013-09-29 05:35:00,
2013-09-29 01:05:00,55.4,51.5,30.03,West,273,0.0,1.0,83,0.00,NA,NA,0.00,meteo_script,2013-09-29 06:05:00,
2013-09-29 01:35:00,54.8,51.2,30.04,West,273,0.1,1.0,84,0.00,NA,NA,0.00,meteo_script,2013-09-29 06:35:00,
2013-09-29 02:05:00,54.3,51.0,30.04,West,272,0.2,1.0,85,0.00,NA,NA,0.00,meteo_script,2013-09-29 07:05:00,
2013-09-29 02:35:00,54.0,50.8,30.05,West,267,2.9,5.0,85,0.00,NA,NA,0.00,meteo_script,2013-09-29 07:35:00,
2013-09-29 03:05:00,53.6,50.4,30.05,West,267,2.2,4.0,85,0.00,NA,NA,0.00,meteo_script,2013-09-29 08:05:00,
2013-09-29 03:35:00,53.2,49.9,30.06,West,267,1.5,3.0,85,0.00,NA,NA,0.00,meteo_script,2013-09-29 08:35:00,
2013-09-29 04:05:00,52.8,49.5,30.05,West,267,0.0,1.0,85,0.00,NA,NA,0.00,meteo_script,2013-09-29 09:05:00,
2013-09-29 04:35:00,52.5,49.3,30.06,West,267,0.1,1.0,85,0.00,NA,NA,0.00,meteo_script,2013-09-29 09:35:00,
2013-09-29 05:05:00,51.7,48.7,30.07,West,267,1.3,2.0,86,0.00,NA,NA,0.00,meteo_script,2013-09-29 10:05:00,
2013-09-29 05:35:00,51.6,48.6,30.07,North,0,0.0,0.0,86,0.00,NA,NA,0.00,meteo_script,2013-09-29 10:35:00,
2013-09-29 06:05:00,51.0,48.0,30.07,West,267,0.5,2.0,86,0.00,NA,NA,0.00,meteo_script,2013-09-29 11:05:00,
2013-09-29 06:35:00,50.7,47.5,30.08,North,0,0.0,0.0,85,0.00,NA,NA,0.00,meteo_script,2013-09-29 11:35:00,
2013-09-29 07:05:00,50.0,46.8,30.09,North,0,0.0,0.0,85,0.00,NA,NA,0.00,meteo_script,2013-09-29 12:05:00,
2013-09-29 07:35:00,49.4,45.9,30.09,North,0,0.0,0.0,84,0.00,NA,NA,0.00,meteo_script,2013-09-29 12:35:00,
2013-09-29 08:05:00,49.0,45.6,30.10,North,0,0.0,0.0,84,0.02,NA,NA,0.01,meteo_script,2013-09-29 13:05:00,
2013-09-29 08:35:00,49.1,45.8,30.10,North,0,0.0,0.0,84,0.00,NA,NA,0.01,meteo_script,2013-09-29 13:35:00,
2013-09-29 09:05:00,50.3,47.3,30.10,North,0,0.0,0.0,86,0.00,NA,NA,0.01,meteo_script,2013-09-29 14:05:00,
2013-09-29 09:35:00,53.0,50.1,30.10,North,0,0.0,0.0,86,0.00,NA,NA,0.01,meteo_script,2013-09-29 14:35:00,
2013-09-29 10:05:00,55.5,50.9,30.11,North,0,0.0,0.0,80,0.00,NA,NA,0.01,meteo_script,2013-09-29 15:05:00,
2013-09-29 10:35:00,57.6,50.7,30.11,North,0,0.0,0.0,72,0.00,NA,NA,0.01,meteo_script,2013-09-29 15:35:00,
2013-09-29 11:05:00,59.1,49.5,30.12,North,0,0.0,0.0,63,0.00,NA,NA,0.01,meteo_script,2013-09-29 16:05:00,
2013-09-29 11:35:00,61.1,49.4,30.12,North,0,0.0,0.0,57,0.00,NA,NA,0.01,meteo_script,2013-09-29 16:35:00,
2013-09-29 12:05:00,62.9,48.3,30.10,North,0,0.0,0.0,49,0.00,NA,NA,0.01,meteo_script,2013-09-29 17:05:00,
2013-09-29 12:35:00,65.3,48.0,30.11,West,265,0.3,1.0,44,0.00,NA,NA,0.01,meteo_script,2013-09-29 17:35:00,
2013-09-29 13:05:00,66.7,48.8,30.10,WSW,256,0.4,3.0,43,0.00,NA,NA,0.01,meteo_script,2013-09-29 18:05:00,
2013-09-29 13:35:00,67.8,48.0,30.09,WNW,299,0.1,1.0,39,0.00,NA,NA,0.01,meteo_script,2013-09-29 18:35:00,
2013-09-29 14:05:00,69.8,49.0,30.08,West,266,0.8,3.0,38,0.00,NA,NA,0.01,meteo_script,2013-09-29 19:05:00,
2013-09-29 14:35:00,71.1,48.5,30.07,WSW,241,0.4,2.0,35,0.00,NA,NA,0.01,meteo_script,2013-09-29 19:35:00,
2013-09-29 15:05:00,70.7,48.7,30.06,SSW,203,1.3,3.0,36,0.00,NA,NA,0.01,meteo_script,2013-09-29 20:05:00,
2013-09-29 15:35:00,71.9,48.3,30.05,West,264,3.1,6.0,33,0.00,NA,NA,0.01,meteo_script,2013-09-29 20:35:00,
2013-09-29 16:05:00,71.9,48.0,30.04,WSW,240,0.7,2.0,33,0.00,NA,NA,0.01,meteo_script,2013-09-29 21:05:00,
2013-09-29 16:35:00,71.7,48.5,30.04,SW,223,0.8,2.0,34,0.00,NA,NA,0.01,meteo_script,2013-09-29 21:35:00,
2013-09-29 17:05:00,71.8,48.6,30.04,SSW,212,0.8,4.0,34,0.00,NA,NA,0.01,meteo_script,2013-09-29 22:05:00,
2013-09-29 17:35:00,71.3,48.7,30.04,SSW,213,0.5,1.0,35,0.00,NA,NA,0.01,meteo_script,2013-09-29 22:35:00,
2013-09-29 18:05:00,70.9,48.3,30.04,SSW,206,0.7,2.0,35,0.00,NA,NA,0.01,meteo_script,2013-09-29 23:05:00,
2013-09-29 18:35:00,69.4,48.2,30.03,SSW,201,0.1,1.0,37,0.00,NA,NA,0.01,meteo_script,2013-09-29 23:35:00,
2013-09-29 19:05:00,67.0,48.1,30.03,North,0,0.0,0.0,41,0.00,NA,NA,0.01,meteo_script,2013-09-30 00:05:00,
2013-09-29 19:35:00,65.0,48.1,30.02,North,0,0.0,0.0,44,0.00,NA,NA,0.01,meteo_script,2013-09-30 00:35:00,
2013-09-29 20:05:00,63.5,47.3,30.03,North,0,0.0,0.0,46,0.00,NA,NA,0.01,meteo_script,2013-09-30 01:05:00,
2013-09-29 20:35:00,62.3,47.4,30.03,North,0,0.0,0.0,48,0.00,NA,NA,0.01,meteo_script,2013-09-30 01:35:00,
2013-09-29 21:05:00,61.2,46.8,30.04,North,0,0.0,0.0,50,0.00,NA,NA,0.01,meteo_script,2013-09-30 02:05:00,
2013-09-29 21:35:00,60.3,47.2,30.04,North,0,0.0,0.0,53,0.00,NA,NA,0.01,meteo_script,2013-09-30 02:35:00,
2013-09-29 22:05:00,59.5,46.8,30.03,North,0,0.0,0.0,54,0.00,NA,NA,0.01,meteo_script,2013-09-30 03:05:00,
2013-09-29 22:35:00,58.8,46.3,30.04,North,0,0.0,0.0,54,0.00,NA,NA,0.01,meteo_script,2013-09-30 03:35:00,
2013-09-29 23:05:00,57.7,46.6,30.05,North,0,0.0,0.0,58,0.00,NA,NA,0.01,meteo_script,2013-09-30 04:05:00,
2013-09-29 23:35:00,57.0,46.2,30.04,SSW,200,0.0,1.0,59,0.00,NA,NA,0.01,meteo_script,2013-09-30 04:35:00,